Weather History for Henderson, TX

Change the Weather History Date:

Friday, January 4, 2013

  Actual Average (KGGG) Record (KGGG)
Temperature  
Mean Temperature 42 °F 46 °F  
Max Temperature 48 °F 57 °F 86 °F (1949)
Min Temperature 35 °F 36 °F 11 °F (1911)
Degree Days  
Heating Degree Days 24 19  
Month to date heating degree days 76  
Since 1 July heating degree days 982  
Cooling Degree Days 0 0  
Month to date cooling degree days 0  
Year to date cooling degree days 0  
Moisture  
Dew Point 33 °F    
Average Humidity 71    
Maximum Humidity 100    
Minimum Humidity 50    
Precipitation  
Precipitation 0.03 in 0.11 in 4.72 in (1932)
Month to date precipitation 0.41  
Year to date precipitation 0.41  
Snow  
Snow 0.00 in - - ()
Month to date snowfall  
Since 1 July snowfall  
Snow Depth -    
Sea Level Pressure  
Sea Level Pressure 30.44 in    
Wind  
Wind Speed 1 mph (NE)    
Max Wind Speed 7 mph    
Max Gust Speed -    
Visibility 10 miles    
Events Rain    
T = Trace of Precipitation, MM = Missing Value Source: NWS Daily Summary

Daily Weather History Graph

Daily Weather History Graph

Search for Another Location

Airport:

Trip Planner

Search our weather history database for the weather conditions in past years. The results will help you decide how hot, cold, wet, or windy it might be!

Date:

Astronomy

Jan. 04, 2013 Rise Set
Actual Time 7:20 AM CST 5:28 PM CST
Civil Twilight 6:54 AM CST 5:55 PM CST
Nautical Twilight 6:23 AM CST 6:25 PM CST
Astronomical Twilight 5:53 AM CST 6:55 PM CST
Moon No Moon Rise 11:31 AM CST (1/4)
Length of Visible Light 11h 01m
Length of Day
10h 07m
Waning Gibbous, 55% of the Moon is Illuminated
Jan 4
Waning Gibbous
Jan 4
Last Quarter
Jan 11
New
Jan 18
First Quarter
Jan 26
Full

Hourly Weather History & Observations

Time (CST) Temp. Windchill Dew Point Humidity Pressure Visibility Wind Dir Wind Speed Gust Speed Precip Events Conditions
12:15 AM 41.0 °F - 30.2 °F 65% 30.44 in 10.0 mi Calm Calm - N/A   Overcast
12:35 AM 41.0 °F - 32.0 °F 70% 30.43 in 10.0 mi Calm Calm - N/A   Overcast
12:55 AM 41.0 °F 39.0 °F 30.2 °F 65% 30.42 in 10.0 mi NNE 3.5 mph - N/A   Overcast
1:15 AM 41.0 °F - 30.2 °F 65% 30.42 in 10.0 mi Calm Calm - N/A   Overcast
1:35 AM 41.0 °F - 30.2 °F 65% 30.41 in 10.0 mi Calm Calm - N/A   Overcast
1:55 AM 41.0 °F 39.0 °F 30.2 °F 65% 30.40 in 10.0 mi NE 3.5 mph - N/A   Overcast
2:15 AM 41.0 °F - 30.2 °F 65% 30.42 in 10.0 mi Calm Calm - N/A   Overcast
2:55 AM 41.0 °F 39.0 °F 32.0 °F 70% 30.41 in 10.0 mi NE 3.5 mph - N/A   Overcast
5:35 AM 41.0 °F - 32.0 °F 70% 30.47 in 10.0 mi Calm Calm - N/A   Overcast
5:55 AM 41.0 °F - 32.0 °F 70% 30.48 in 10.0 mi Calm Calm - N/A   Overcast
6:15 AM 41.0 °F - 32.0 °F 70% 30.48 in 10.0 mi Calm Calm - N/A   Overcast
6:35 AM 39.2 °F 37.0 °F 32.0 °F 75% 30.48 in 10.0 mi North 3.5 mph - N/A   Scattered Clouds
6:55 AM 41.0 °F - 32.0 °F 70% 30.48 in 10.0 mi Calm Calm - N/A   Mostly Cloudy
7:15 AM 39.2 °F - 32.0 °F 75% 30.49 in 10.0 mi Calm Calm - N/A Rain Light Rain
7:35 AM 37.4 °F - 32.0 °F 81% 30.50 in 10.0 mi Calm Calm - N/A Rain Light Rain
7:55 AM 35.6 °F - 33.8 °F 93% 30.51 in 7.0 mi Calm Calm - 0.01 in Rain Light Rain
8:15 AM 35.6 °F - 33.8 °F 93% 30.51 in 5.0 mi Calm Calm - 0.01 in Rain Rain
8:35 AM 35.6 °F - 35.6 °F 100% 30.51 in 5.0 mi Calm Calm - 0.01 in Rain Light Rain
8:55 AM 37.4 °F - 35.6 °F 93% 30.51 in 10.0 mi Calm Calm - 0.02 in   Mostly Cloudy
9:15 AM 37.4 °F - 33.8 °F 87% 30.52 in 10.0 mi Calm Calm - N/A   Overcast
9:35 AM 39.2 °F - 35.6 °F 87% 30.52 in 10.0 mi Calm Calm - N/A Rain Light Rain
9:55 AM 41.0 °F - 33.8 °F 76% 30.52 in 10.0 mi Calm Calm - N/A Rain Light Rain
10:15 AM 41.0 °F - 33.8 °F 76% 30.53 in 10.0 mi Calm Calm - N/A Rain Light Rain
10:35 AM 41.0 °F - 33.8 °F 76% 30.53 in 10.0 mi Calm Calm - N/A   Mostly Cloudy
10:55 AM 42.8 °F - 33.8 °F 70% 30.52 in 10.0 mi Calm Calm - N/A Rain Light Rain
11:15 AM 42.8 °F - 33.8 °F 70% 30.51 in 10.0 mi Calm Calm - N/A   Mostly Cloudy
11:35 AM 44.6 °F - 33.8 °F 66% 30.50 in 10.0 mi Calm Calm - N/A   Overcast
11:55 AM 44.6 °F - 32.0 °F 61% 30.50 in 10.0 mi Calm Calm - N/A   Overcast
12:15 PM 46.4 °F - 32.0 °F 57% 30.48 in 10.0 mi Calm Calm - N/A   Overcast
12:35 PM 46.4 °F 45.2 °F 32.0 °F 57% 30.46 in 10.0 mi NNE 3.5 mph - N/A   Overcast
12:55 PM 46.4 °F - 32.0 °F 57% 30.46 in 10.0 mi Calm Calm - N/A   Overcast
1:15 PM 46.4 °F 44.3 °F 30.2 °F 53% 30.44 in 10.0 mi NE 4.6 mph - N/A   Mostly Cloudy
1:35 PM 46.4 °F 43.5 °F 32.0 °F 57% 30.43 in 10.0 mi ENE 5.8 mph - N/A   Overcast
1:55 PM 46.4 °F - 30.2 °F 53% 30.42 in 10.0 mi Calm Calm - N/A   Overcast
2:15 PM 48.2 °F - 30.2 °F 50% 30.41 in 10.0 mi ENE 3.5 mph - N/A   Overcast
2:35 PM 46.4 °F 45.2 °F 28.4 °F 50% 30.41 in 10.0 mi East 3.5 mph - N/A   Overcast
2:55 PM 46.4 °F 44.3 °F 30.2 °F 53% 30.40 in 10.0 mi ENE 4.6 mph - N/A   Overcast
3:15 PM 48.2 °F - 30.2 °F 50% 30.40 in 10.0 mi NE 4.6 mph - N/A   Overcast
3:35 PM 48.2 °F - 30.2 °F 50% 30.40 in 10.0 mi NE 4.6 mph - N/A   Overcast
3:55 PM 46.4 °F 44.3 °F 30.2 °F 53% 30.40 in 10.0 mi ENE 4.6 mph - N/A   Overcast
4:15 PM 48.2 °F - 30.2 °F 50% 30.40 in 10.0 mi East 6.9 mph - N/A   Overcast
4:35 PM 46.4 °F - 30.2 °F 53% 30.41 in 10.0 mi Calm Calm - N/A   Overcast
4:55 PM 46.4 °F 45.2 °F 32.0 °F 57% 30.39 in 10.0 mi East 3.5 mph - N/A   Overcast
5:15 PM 44.6 °F - 32.0 °F 61% 30.40 in 10.0 mi Calm Calm - N/A   Mostly Cloudy
5:35 PM 44.6 °F - 32.0 °F 61% 30.39 in 10.0 mi Calm Calm - N/A   Clear
5:55 PM 42.8 °F - 33.8 °F 70% 30.40 in 10.0 mi Calm Calm - N/A   Clear
6:15 PM 42.8 °F - 33.8 °F 70% 30.40 in 10.0 mi Calm Calm - N/A   Clear
6:35 PM 42.8 °F - 35.6 °F 76% 30.40 in 10.0 mi Calm Calm - N/A   Scattered Clouds
6:55 PM 42.8 °F - 35.6 °F 76% 30.41 in 10.0 mi Calm Calm - N/A   Mostly Cloudy
7:15 PM 42.8 °F - 35.6 °F 76% 30.41 in 10.0 mi Calm Calm - N/A   Scattered Clouds
7:35 PM 42.8 °F - 33.8 °F 70% 30.41 in 10.0 mi Calm Calm - N/A   Scattered Clouds
7:55 PM 42.8 °F - 35.6 °F 76% 30.41 in 10.0 mi Calm Calm - N/A   Mostly Cloudy
8:15 PM 41.0 °F - 35.6 °F 81% 30.41 in 10.0 mi Calm Calm - N/A   Mostly Cloudy
8:35 PM 41.0 °F - 35.6 °F 81% 30.41 in 10.0 mi Calm Calm - N/A   Scattered Clouds
8:55 PM 41.0 °F - 35.6 °F 81% 30.41 in 10.0 mi Calm Calm - N/A   Scattered Clouds
9:15 PM 41.0 °F - 37.4 °F 87% 30.39 in 10.0 mi Calm Calm - N/A Rain Light Rain
9:35 PM 41.0 °F - 37.4 °F 87% 30.39 in 10.0 mi Calm Calm - N/A   Overcast
9:55 PM 41.0 °F - 37.4 °F 87% 30.39 in 10.0 mi Calm Calm - N/A Rain Light Rain
10:15 PM 41.0 °F - 37.4 °F 87% 30.38 in 10.0 mi Calm Calm - N/A   Light Drizzle
10:35 PM 41.0 °F - 37.4 °F 87% 30.38 in 10.0 mi Calm Calm - N/A   Overcast
10:55 PM 41.0 °F - 39.2 °F 93% 30.38 in 10.0 mi Calm Calm - N/A   Overcast
11:15 PM 41.0 °F - 37.4 °F 87% 30.38 in 10.0 mi Calm Calm - N/A Rain Light Rain
11:35 PM 42.8 °F - 39.2 °F 87% 30.36 in 10.0 mi Calm Calm - N/A   Overcast
11:55 PM 42.8 °F - 39.2 °F 87% 30.38 in 10.0 mi Calm Calm - N/A   Overcast